Regional Weather Roundup
Issued by NWS

Home | Current Version | Previous Version | Graphics & Text | Print | Product List | Glossary On
Versions: 1 2 3 4 5 6 7 8 9 10 11 12 13 14 15 16 17 18 19 20 21 22 23 24 25 26 27 28 29 30 31 32 33 34 35 36 37 38 39 40 41 42 43 44 45 46 47 48 49 50
128
ASUS45 KBOU 231907
RWRCO

WEATHER ROUNDUP FOR COLORADO
NATIONAL WEATHER SERVICE DENVER/BOULDER CO
100 PM MDT MON OCT 23 2017

NOTE: "FAIR" INDICATES FEW OR NO CLOUDS BELOW 12000 FEET WITH NO
SIGNIFICANT WEATHER AND/OR OBSTRUCTIONS TO VISIBILITY.

COZ001>005-013-030-031-232000-
...NORTHWEST COLORADO...

CITY           SKY/WX    TMP DP  RH WIND       PRES   REMARKS
CRAIG          NOT AVBL
HAYDEN         PTSUNNY   55  29  36 NW17G23   30.51
MEEKER         NOT AVBL
RABBIT EARS PA FAIR      34  28  80 W17G29    30.55F WCI  23
STEAMBOAT SPGS FAIR      53  28  36 W16G23    30.49F
WALDEN         NOT AVBL
$$

COZ006>008-011-232000-
...WEST CENTRAL VALLEYS...

CITY           SKY/WX    TMP DP  RH WIND       PRES   REMARKS
GRAND JUNCTION NOT AVBL
MONTROSE       NOT AVBL
EAGLE          FAIR      61  25  25 W9        30.47
RIFLE          NOT AVBL
DELTA          FAIR      62  24  23 SW5       30.47F
NUCLA          FAIR      64  23  20 NW9       30.50
$$

COZ017>023-064>068-232000-
...SOUTHWEST COLORADO...

CITY           SKY/WX    TMP DP  RH WIND       PRES   REMARKS
DURANGO        NOT AVBL
CORTEZ         NOT AVBL
PAGOSA SPRINGS NOT AVBL
TELLURIDE      NOT AVBL
WOLF CREEK PAS FAIR      43  18  36 NW12G20   30.71S
$$

COZ009-010-012-014-032>034-037-058>063-232000-
...CENTRAL COLORADO...

CITY           SKY/WX    TMP DP  RH WIND       PRES   REMARKS
ASPEN          NOT AVBL
BUENA VISTA    FAIR      62  19  19 N16G22    30.40F
COPPER MTN     FAIR      37  21  52 NW25G40   30.61R
BERTHOUD PASS  FAIR      28  19  69 NW53G63   30.50R WCI   9
COTTONWOOD PAS FAIR      59  12  15 W18G28    30.50F
GUNNISON       FAIR      58  27  30 SW21      30.47
KREMMLING      FAIR      61  23  23 NW15G24   30.48F
LEADVILLE      NOT AVBL
MONARCH PASS   FAIR      37  23  56 W30G40    30.71F
SALIDA         FAIR      65  23  19 NW3G17    30.45F
SUNLIGHT       FAIR      41  25  52 W9G16     30.66F
WILKERSON PASS FAIR      46  10  23 NW8G22    30.55F
$$

COZ069>075-232000-
...SAN LUIS VALLEY/SANGRE DE CRISTO MOUNTAINS...

CITY           SKY/WX    TMP DP  RH WIND       PRES   REMARKS
ALAMOSA        NOT AVBL
DEL NORTE      FAIR      60  26  28 SE8       30.45F
LA VETA PASS   FAIR      52  27  37 S10G28    30.63F
SAGUACHE       FAIR      63  27  25 NW18G26   30.43F
$$

COZ035-036-038>040-232000-
...NORTHERN COLORADO FRONT RANGE...

CITY           SKY/WX    TMP DP  RH WIND       PRES   REMARKS
DENVER INTL AP NOT AVBL
DMNS CITY PARK   N/A     49  29  44 NE6G15    30.44F
AURORA         PTSUNNY   49  28  44 NE13      30.44F
FRONT RANGE AP NOT AVBL
ERIE MUNI ARPT PTSUNNY   50  31  49 CALM      30.49F
BOULDER MUN AP CLOUDY    45  32  61 SE5       30.45F
CENTENNIAL     NOT AVBL
BROOMFIELD     NOT AVBL
FORT COLLINS   FAIR      49  34  56 SW14      30.43F
LONGMONT       NOT AVBL
$$

COZ041-046-047-076>085-087-088-232000-
...PIKES PEAK/PALMER DIVIDE AND SOUTHERN FOOTHILLS...

CITY           SKY/WX    TMP DP  RH WIND       PRES   REMARKS
COLO. SPRINGS  PTSUNNY   50  33  52 VRB5      30.43
A. F. ACADEMY  CLOUDY    45  31  57 N12       30.43
SCHRIEVER AFB  PTSUNNY   47  29  47 NE9       30.43F
CHEYENNE MTN   PTSUNNY   47  32  55 SE12      30.37F
ELLICOTT         N/A    N/A N/A N/A N3        30.42S
FALCON         PTSUNNY   46  29  51 N12       30.44F
FORT CARSON    FAIR      53  32  45 E10       30.41F
LIMON          FAIR      51  24  34 N25G33    30.40
MONUMENT HILL  PTSUNNY   39  28  65 N12       30.47S
CANON CITY     SUNNY     59  36  41 E10G18    30.40F
WALSENBURG     FAIR      57  36  44 E7        30.41F
TRINIDAD       FAIR      56  31  38 NE8       30.41
$$

COZ042>045-048>051-090-091-232000-
...NORTHEAST COLORADO...

CITY           SKY/WX    TMP DP  RH WIND       PRES   REMARKS
GREELEY ARPT   FAIR      54  24  31 VRB6G16   30.42
AKRON          NOT AVBL
BURLINGTON     NOT AVBL
WRAY           NOT AVBL
YUMA           NOT AVBL
STERLING       NOT AVBL
HOLYOKE        FAIR      59  23  25 NW20G35   30.35F
FORT MORGAN    CLOUDY    52  19  27 NW16G26   30.42F
$$

COZ086-089-092>099-232000-
...SOUTHEAST COLORADO...

CITY           SKY/WX    TMP DP  RH WIND       PRES   REMARKS
PUEBLO         NOT AVBL
LA JUNTA       NOT AVBL
LAMAR          NOT AVBL
SPRINGFIELD    NOT AVBL
$$




USA.gov is the U.S. government's official web portal to all federal, state and local government web resources and services.